Find Starlink 11736

NORAD ID: 64317 Int'l Des: 2025-124 Owner: SPXS Country: US Constellation: starlink operational
別名: STARLINK-11736 [DTC] celestrak
LEOCIRCULAR

現在のビュー

3D地球を読み込み中...

About Starlink 11736

Starlink 11736 (NORAD 64317) is a starlink constellation satellite (v2 mini d2c) launched Jun 10, 2025 by SPXS of US. It operates in LEO, CIRCULAR orbit with a mass of 960.00 kg.

次回通過

Passes for default location (London). Set your location on the main map for personalized predictions.

高度履歴

Loading altitude history...

軌道要素

1 64317U 25124A 26235.99318739 .00152928 00000-0 11714-2 0 9995
2 64317 43.0010 101.0590 0001934 266.0794 93.9852 15.70881472 69147
Epoch: Aug 23, 2026 • Age: 34 hours

現在のステータス

高度 359.5 km
遠地点 / 近地点 N/A
速度 7.70 km/s
衛星直下点 43.13°N, 59.72°E
打ち上げ日 Jun 10, 2025
運用期間 1.2 years
タイプ internet

技術仕様

分類 Payload
質量 960.00 kg
乾燥質量 910.00 kg
総質量 960.00 kg
長さ 0.30 m
直径 4.10 m
スパン 29.00 m
形状 Box + pan
製造者 SPXS
バスタイプ Starlink V2MD
フェーズステータス In Orbit
所有者/国 SPXS/US

Most Searched